| time (UTC) | temp C | wind direction | speed KPH | gust KPH | rain 1hr cm | rain 24hr cm | rain mn cm | humidity % | barometer mb |
| 20260507030041 | 8 | 303 | 0.0 | 3.2 | 0.00 | 0.10 | 0.03 | 93 | 1012.5 |
| 20260507025101 | 8 | 290 | 0.0 | 1.6 | 0.00 | 0.10 | 0.03 | 92 | 1012.5 |
| 20260507024041 | 8 | 278 | 0.0 | 3.2 | 0.00 | 0.10 | 0.03 | 92 | 1012.5 |
| 20260507023042 | 8 | 292 | 0.0 | 3.2 | 0.00 | 0.10 | 0.03 | 92 | 1012.3 |
| 20260507022042 | 8 | 301 | 0.0 | 3.2 | 0.00 | 0.10 | 0.03 | 93 | 1012.3 |
| 20260507021043 | 8 | 0.0 | 1.6 | 0.00 | 0.10 | 0.03 | 94 | 1012.2 | |
| 20260507015043 | 8 | 288 | 0.0 | 3.2 | 0.00 | 0.10 | 0.03 | 95 | 1012.0 |
| 20260507014044 | 8 | 275 | 0.0 | 1.6 | 0.00 | 0.10 | 0.03 | 95 | 1012.0 |
| 20260507013104 | 8 | 0.0 | 0.0 | 0.00 | 0.10 | 0.03 | 94 | 1011.8 | |
| 20260507012017 | 8 | 0.0 | 0.0 | 0.00 | 0.10 | 0.03 | 94 | 1011.8 | |
| 20260507011037 | 8 | 0.0 | 0.0 | 0.00 | 0.10 | 0.03 | 94 | 1011.7 | |
| 20260507010018 | 8 | 0.0 | 0.0 | 0.00 | 0.10 | 0.03 | 93 | 1011.7 | |
| 20260507005018 | 8 | 0.0 | 0.0 | 0.00 | 0.10 | 0.03 | 93 | 1011.7 | |
| 20260507004018 | 8 | 0.0 | 0.0 | 0.00 | 0.10 | 0.03 | 93 | 1011.7 | |
| 20260507003019 | 8 | 291 | 0.0 | 3.2 | 0.00 | 0.10 | 0.03 | 93 | 1011.7 |
| 20260507002039 | 8 | 0.0 | 0.0 | 0.00 | 0.10 | 0.03 | 93 | 1011.6 | |
| 20260507001020 | 8 | 0.0 | 0.0 | 0.00 | 0.10 | 0.03 | 92 | 1011.6 | |
| 20260507000040 | 8 | 299 | 0.0 | 1.6 | 0.00 | 0.10 | 0.03 | 92 | 1011.6 |
| 20260506235021 | 8 | 0.0 | 1.6 | 0.00 | 0.10 | 0.03 | 92 | 1011.6 | |
| 20260506234021 | 8 | 303 | 0.0 | 3.2 | 0.00 | 0.10 | 0.03 | 92 | 1011.5 |
| 20260506233021 | 8 | 304 | 0.0 | 3.2 | 0.03 | 0.10 | 0.03 | 92 | 1011.5 |
| 20260506232021 | 9 | 284 | 0.0 | 4.8 | 0.03 | 0.10 | 0.03 | 92 | 1011.4 |
| 20260506231022 | 9 | 307 | 0.0 | 3.2 | 0.03 | 0.10 | 0.03 | 93 | 1011.4 |
| 20260506230023 | 9 | 325 | 0.0 | 4.8 | 0.03 | 0.10 | 0.03 | 93 | 1011.3 |
| 20260506225023 | 9 | 300 | 0.0 | 4.8 | 0.03 | 0.10 | 0.03 | 94 | 1011.3 |
| 20260506224023 | 9 | 0.0 | 0.0 | 0.03 | 0.10 | 0.03 | 94 | 1011.2 | |
| 20260506223023 | 9 | 331 | 0.0 | 1.6 | 0.00 | 0.08 | 0.00 | 94 | 1011.0 |
| 20260506222024 | 9 | 310 | 0.0 | 1.6 | 0.03 | 0.08 | 0.00 | 94 | 1010.9 |
| 20260506221045 | 9 | 350 | 0.0 | 1.6 | 0.03 | 0.08 | 0.00 | 94 | 1010.8 |
| 20260506220025 | 9 | 320 | 0.0 | 1.6 | 0.03 | 0.08 | 0.00 | 94 | 1010.8 |
| 20260506215025 | 10 | 315 | 1.6 | 3.2 | 0.03 | 0.08 | 0.08 | 94 | 1010.7 |
| 20260506214025 | 10 | 309 | 0.0 | 3.2 | 0.03 | 0.08 | 0.08 | 94 | 1010.7 |
| 20260506213026 | 10 | 317 | 0.0 | 1.6 | 0.03 | 0.08 | 0.08 | 93 | 1010.6 |
| 20260506212026 | 10 | 0.0 | 1.6 | 0.00 | 0.05 | 0.05 | 92 | 1010.3 | |
| 20260506211027 | 10 | 358 | 0.0 | 1.6 | 0.00 | 0.05 | 0.05 | 91 | 1010.3 |
| 20260506210028 | 10 | 0.0 | 0.0 | 0.00 | 0.05 | 0.05 | 90 | 1010.2 | |
| 20260506205028 | 11 | 322 | 0.0 | 1.6 | 0.00 | 0.08 | 0.05 | 90 | 1010.1 |
| 20260506204028 | 11 | 0.0 | 0.0 | 0.00 | 0.08 | 0.05 | 90 | 1010.1 | |
| 20260506203028 | 11 | 297 | 0.0 | 1.6 | 0.00 | 0.08 | 0.05 | 90 | 1010.1 |
| 20260506202049 | 10 | 0.0 | 0.0 | 0.00 | 0.10 | 0.05 | 90 | 1009.9 | |
| 20260506201029 | 11 | 0.0 | 0.0 | 0.00 | 0.10 | 0.05 | 89 | 1009.8 | |
| 20260506200110 | 11 | 0.0 | 1.6 | 0.00 | 0.10 | 0.05 | 89 | 1009.7 | |
| 20260506195030 | 11 | 312 | 0.0 | 1.6 | 0.00 | 0.10 | 0.05 | 89 | 1009.8 |
| 20260506194030 | 11 | 303 | 0.0 | 3.2 | 0.00 | 0.10 | 0.05 | 90 | 1009.7 |
| 20260506193051 | 11 | 0.0 | 0.0 | 0.00 | 0.13 | 0.05 | 90 | 1009.5 | |
| 20260506192032 | 11 | 0.0 | 0.0 | 0.00 | 0.15 | 0.05 | 90 | 1009.5 | |
| 20260506191032 | 11 | 16 | 0.0 | 1.6 | 0.00 | 0.18 | 0.05 | 89 | 1009.3 |
| 20260506190033 | 11 | 336 | 0.0 | 3.2 | 0.00 | 0.18 | 0.05 | 89 | 1009.1 |
| 20260506185033 | 11 | 332 | 0.0 | 1.6 | 0.00 | 0.18 | 0.05 | 89 | 1009.1 |
| 20260506184033 | 11 | 0.0 | 1.6 | 0.00 | 0.20 | 0.05 | 89 | 1008.8 | |
| 20260506183034 | 11 | 314 | 0.0 | 4.8 | 0.00 | 0.20 | 0.05 | 88 | 1008.6 |
| 20260506182034 | 11 | 312 | 1.6 | 4.8 | 0.00 | 0.20 | 0.05 | 88 | 1008.5 |
| 20260506181034 | 12 | 314 | 0.0 | 3.2 | 0.00 | 0.20 | 0.05 | 86 | 1008.3 |
| 20260506180035 | 12 | 307 | 0.0 | 3.2 | 0.00 | 0.20 | 0.05 | 86 | 1008.3 |
| 20260506175035 | 12 | 307 | 0.0 | 3.2 | 0.00 | 0.20 | 0.05 | 87 | 1008.2 |
| 20260506174035 | 12 | 330 | 1.6 | 8.0 | 0.00 | 0.20 | 0.05 | 88 | 1008.1 |
| 20260506173020 | 12 | 310 | 0.0 | 3.2 | 0.00 | 0.20 | 0.05 | 91 | 1008.0 |
| 20260506172036 | 12 | 357 | 0.0 | 1.6 | 0.00 | 0.20 | 0.05 | 91 | 1008.0 |
| 20260506171021 | 12 | 0.0 | 0.0 | 0.00 | 0.20 | 0.05 | 91 | 1008.0 | |
| 20260506170021 | 12 | 18 | 1.6 | 4.8 | 0.00 | 0.20 | 0.05 | 91 | 1007.8 |
| 20260506165118 | 12 | 350 | 0.0 | 3.2 | 0.05 | 0.20 | 0.05 | 89 | 1007.8 |
| 20260506164022 | 13 | 308 | 0.0 | 3.2 | 0.05 | 0.20 | 0.05 | 91 | 1007.9 |
| 20260506163038 | 13 | 303 | 0.0 | 1.6 | 0.05 | 0.20 | 0.05 | 90 | 1007.9 |
| 20260506162023 | 13 | 297 | 0.0 | 3.2 | 0.05 | 0.20 | 0.05 | 90 | 1007.7 |
| 20260506161040 | 13 | 294 | 0.0 | 1.6 | 0.05 | 0.20 | 0.05 | 90 | 1007.7 |
| 20260506160024 | 13 | 305 | 0.0 | 1.6 | 0.05 | 0.20 | 0.05 | 88 | 1007.7 |
| 20260506155040 | 14 | 299 | 0.0 | 1.6 | 0.00 | 0.15 | 0.00 | 86 | 1007.7 |
| 20260506154044 | 14 | 298 | 1.6 | 8.0 | 0.00 | 0.15 | 0.00 | 84 | 1007.8 |
| 20260506153041 | 15 | 289 | 3.2 | 9.7 | 0.00 | 0.15 | 0.00 | 79 | 1007.7 |
| 20260506152105 | 14 | 297 | 3.2 | 11.3 | 0.00 | 0.15 | 0.00 | 80 | 1007.7 |
| 20260506151042 | 15 | 289 | 3.2 | 9.7 | 0.00 | 0.15 | 0.00 | 80 | 1007.7 |
| 20260506150026 | 16 | 276 | 6.4 | 16.1 | 0.00 | 0.15 | 0.00 | 71 | 1007.4 |
| 20260506145043 | 16 | 307 | 3.2 | 11.3 | 0.00 | 0.15 | 0.00 | 67 | 1007.0 |
| 20260506144027 | 16 | 285 | 3.2 | 9.7 | 0.00 | 0.15 | 0.00 | 67 | 1007.0 |
| 20260506143043 | 16 | 300 | 4.8 | 8.0 | 0.00 | 0.15 | 0.00 | 68 | 1007.0 |
| 20260506142048 | 16 | 288 | 3.2 | 9.7 | 0.00 | 0.15 | 0.00 | 69 | 1006.9 |
| 20260506141044 | 16 | 261 | 3.2 | 11.3 | 0.00 | 0.18 | 0.00 | 69 | 1007.0 |
| 20260506140029 | 16 | 266 | 3.2 | 9.7 | 0.00 | 0.20 | 0.00 | 67 | 1006.8 |
| 20260506135045 | 17 | 276 | 3.2 | 11.3 | 0.00 | 0.20 | 0.00 | 65 | 1006.9 |
| 20260506134030 | 18 | 275 | 3.2 | 11.3 | 0.00 | 0.23 | 0.00 | 63 | 1006.8 |
| 20260506133046 | 18 | 250 | 4.8 | 9.7 | 0.00 | 0.23 | 0.00 | 63 | 1006.9 |
| 20260506132030 | 17 | 259 | 3.2 | 8.0 | 0.00 | 0.23 | 0.00 | 65 | 1007.0 |
| 20260506131107 | 18 | 268 | 3.2 | 9.7 | 0.00 | 0.25 | 0.00 | 63 | 1007.0 |
| 20260506130031 | 17 | 280 | 4.8 | 11.3 | 0.00 | 0.25 | 0.00 | 65 | 1007.1 |
| 20260506125032 | 18 | 281 | 4.8 | 12.9 | 0.00 | 0.25 | 0.00 | 65 | 1007.1 |
| 20260506124032 | 16 | 280 | 4.8 | 8.0 | 0.00 | 0.25 | 0.00 | 71 | 1007.2 |
| 20260506123052 | 15 | 283 | 3.2 | 12.9 | 0.00 | 0.25 | 0.00 | 73 | 1007.3 |
| 20260506122057 | 15 | 273 | 3.2 | 9.7 | 0.00 | 0.25 | 0.00 | 75 | 1007.3 |
| 20260506121017 | 14 | 291 | 4.8 | 12.9 | 0.00 | 0.25 | 0.00 | 76 | 1007.4 |
| 20260506120018 | 15 | 273 | 3.2 | 12.9 | 0.00 | 0.25 | 0.00 | 75 | 1007.4 |
| 20260506115018 | 15 | 249 | 4.8 | 14.5 | 0.00 | 0.25 | 0.00 | 74 | 1007.4 |
| 20260506114018 | 15 | 208 | 3.2 | 14.5 | 0.00 | 0.25 | 0.00 | 74 | 1007.3 |
| 20260506113019 | 14 | 268 | 1.6 | 11.3 | 0.00 | 0.25 | 0.00 | 77 | 1007.4 |
| 20260506112020 | 13 | 278 | 1.6 | 8.0 | 0.00 | 0.25 | 0.00 | 78 | 1007.4 |
| 20260506111019 | 13 | 267 | 3.2 | 11.3 | 0.00 | 0.25 | 0.00 | 79 | 1007.4 |
| 20260506110020 | 13 | 248 | 4.8 | 11.3 | 0.00 | 0.25 | 0.00 | 79 | 1007.4 |
| 20260506105020 | 14 | 211 | 4.8 | 14.5 | 0.00 | 0.25 | 0.00 | 78 | 1007.4 |
| 20260506104021 | 14 | 259 | 3.2 | 9.7 | 0.00 | 0.25 | 0.00 | 78 | 1007.5 |
| 20260506103021 | 13 | 264 | 3.2 | 9.7 | 0.00 | 0.25 | 0.00 | 78 | 1007.5 |
| 20260506102022 | 14 | 262 | 3.2 | 8.0 | 0.00 | 0.25 | 0.00 | 77 | 1007.3 |
| 20260506101042 | 15 | 277 | 1.6 | 4.8 | 0.00 | 0.25 | 0.00 | 77 | 1007.3 |
| 20260506100023 | 14 | 263 | 3.2 | 8.0 | 0.00 | 0.25 | 0.00 | 77 | 1007.2 |
| 20260506095023 | 14 | 265 | 4.8 | 11.3 | 0.00 | 0.25 | 0.00 | 78 | 1007.2 |
| 20260506094023 | 14 | 276 | 3.2 | 8.0 | 0.00 | 0.25 | 0.00 | 77 | 1007.3 |
| 20260506093024 | 14 | 267 | 4.8 | 11.3 | 0.00 | 0.25 | 0.00 | 78 | 1007.1 |
| 20260506092024 | 15 | 280 | 3.2 | 4.8 | 0.00 | 0.25 | 0.00 | 77 | 1007.1 |
| 20260506091045 | 14 | 285 | 3.2 | 9.7 | 0.00 | 0.25 | 0.00 | 77 | 1007.0 |
| 20260506090025 | 14 | 284 | 3.2 | 11.3 | 0.00 | 0.25 | 0.00 | 78 | 1007.0 |
| 20260506085025 | 14 | 284 | 1.6 | 4.8 | 0.00 | 0.25 | 0.00 | 79 | 1007.0 |
| 20260506084046 | 13 | 292 | 1.6 | 3.2 | 0.00 | 0.25 | 0.00 | 81 | 1007.1 |
| 20260506083046 | 13 | 267 | 1.6 | 4.8 | 0.00 | 0.25 | 0.00 | 82 | 1007.1 |
| 20260506082047 | 12 | 289 | 1.6 | 4.8 | 0.00 | 0.25 | 0.00 | 82 | 1007.1 |
| 20260506081027 | 12 | 275 | 1.6 | 8.0 | 0.00 | 0.25 | 0.00 | 83 | 1007.2 |
| 20260506073029 | 12 | 284 | 1.6 | 8.0 | 0.00 | 0.25 | 0.00 | 83 | 1006.9 |
| 20260506072029 | 12 | 291 | 1.6 | 8.0 | 0.00 | 0.25 | 0.00 | 84 | 1007.0 |
| 20260506071030 | 12 | 271 | 1.6 | 9.7 | 0.00 | 0.25 | 0.00 | 84 | 1007.0 |
| 20260506062032 | 12 | 273 | 1.6 | 4.8 | 0.00 | 0.25 | 0.00 | 90 | 1006.9 |
| 20260506061032 | 12 | 283 | 0.0 | 1.6 | 0.00 | 0.25 | 0.00 | 91 | 1007.0 |
| 20260506051034 | 11 | 281 | 1.6 | 3.2 | 0.00 | 0.25 | 0.00 | 92 | 1006.7 |
| 20260506045055 | 11 | 288 | 1.6 | 4.8 | 0.00 | 0.25 | 0.00 | 93 | 1006.7 |
| 20260506044036 | 11 | 277 | 1.6 | 8.0 | 0.00 | 0.25 | 0.00 | 93 | 1006.7 |
| 20260506043036 | 11 | 281 | 1.6 | 4.8 | 0.00 | 0.25 | 0.00 | 94 | 1006.8 |
| 20260506042036 | 11 | 282 | 1.6 | 4.8 | 0.00 | 0.25 | 0.00 | 94 | 1006.8 |
| 20260506041057 | 11 | 282 | 1.6 | 4.8 | 0.00 | 0.25 | 0.00 | 94 | 1006.9 |
| 20260506040038 | 11 | 267 | 1.6 | 4.8 | 0.00 | 0.25 | 0.00 | 95 | 1006.8 |
| 20260506035038 | 11 | 281 | 1.6 | 4.8 | 0.00 | 0.25 | 0.00 | 94 | 1007.0 |
| 20260506034038 | 11 | 276 | 0.0 | 3.2 | 0.00 | 0.25 | 0.00 | 95 | 1007.0 |
| 20260506033059 | 11 | 321 | 1.6 | 4.8 | 0.00 | 0.25 | 0.00 | 94 | 1007.1 |
| 20260506032039 | 11 | 281 | 1.6 | 4.8 | 0.00 | 0.25 | 0.00 | 95 | 1007.1 |
| 20260506031039 | 11 | 289 | 1.6 | 4.8 | 0.00 | 0.25 | 0.00 | 95 | 1007.1 |